Regional Weather Roundup
Issued by NWS

Home | Current Version | Previous Version | Text Only | Print | Product List | Glossary On
Versions: 1 2 3 4 5 6 7 8 9 10 11 12 13 14 15 16 17 18 19 20 21 22 23 24 25 26 27 28 29 30 31 32 33 34 35 36 37 38 39 40 41 42 43 44 45 46 47 48 49 50
000
ASUS42 KFFC 192303
RWRGA
WEATHER ROUNDUP FOR GEORGIA
NATIONAL WEATHER SERVICE PEACHTREE CITY GA
600 PM EST FRI DEC 19 2014

NOTE: "FAIR" INDICATES FEW OR NO CLOUDS BELOW 12,000 FEET WITH NO
SIGNIFICANT WEATHER AND/OR OBSTRUCTIONS TO VISIBILITY.

* = USE WITH CAUTION. THE STATIONS MARKED WITH AN ASTERISK MAY NOT
REPORT WEATHER SUCH AS PRECIPITATION, FOG, OR THUNDER AND ARE NOT
QUALITY CONTROLLED BY NWS.

THE REMARK "TC" DENOTES TEMPERATURE READING IN DEGREES CELSIUS.

GAZ001>058-200000-
NORTH GEORGIA

CITY           SKY/WX    TMP DP  RH WIND       PRES   REMARKS
ATLANTA        CLOUDY    49  34  56 N9        30.10S
ATHENS         CLOUDY    51  38  60 E3        30.10R
CHAMBLEE       CLOUDY    48  34  58 NW5       30.11R
PEACHTREE CITY CLOUDY    50  39  66 N5        30.10F
ROME           CLOUDY    46  31  55 N8        30.15R
WEST ATLANTA   CLOUDY    48  34  58 NW5       30.12R
GAINESVILLE    CLOUDY    50  35  56 CALM      30.10F
CARTERSVILLE   CLOUDY    46  30  53 CALM      30.15S


CITY           SKY/WX    TMP DP  RH WIND       PRES   REMARKS
DALTON*        CLOUDY    43  32  65 NW7       30.15R
LAWRENCEVILLE* CLEAR     52  34  50 CALM      30.09R
MARIETTA       CLOUDY    47  34  61 NW7       30.12R
KENNESAW*      CLOUDY    45  28  53 NW5       30.14R
$$

GAZ059>098-102>109-200000-
CENTRAL GEORGIA

CITY           SKY/WX    TMP DP  RH WIND       PRES   REMARKS
AUGUSTA-BUSH   MOCLDY    53  42  66 CALM      30.10R
AUGUSTA-DANIEL MOCLDY    59  39  47 S5        30.10R
COLUMBUS       MOCLDY    53  37  54 NW7       30.12R
MACON          CLOUDY    53  38  56 CALM      30.08F
ROBINS AFB     CLOUDY    54  41  61 SE2       30.08F


CITY           SKY/WX    TMP DP  RH WIND       PRES   REMARKS
LAGRANGE*      MOCLDY    54  41  61 CALM      30.13R
SYLVANIA*      MOCLDY    53  49  87 CALM      30.11S
MILLEDGEVILLE* CLOUDY    50  45  81 CALM      30.08F
$$

GAZ099>101-110>166-200000-
SOUTH GEORGIA

CITY           SKY/WX    TMP DP  RH WIND       PRES   REMARKS
SAVANNAH       CLOUDY    57  43  59 CALM      30.10S
VALDOSTA       MOCLDY    57  45  64 CALM      30.08S
ALMA           CLOUDY    57  40  52 NW3       30.08S
ST SIMONS      MOCLDY    57  47  69 E6        30.10S
FT STEWART     CLOUDY    55  48  76 CALM      30.08S
ALBANY         PTCLDY    53  43  68 CALM      30.09F
HUNTER AFB     CLOUDY    55  44  67 E3        30.08S
MOODY AFB      CLOUDY    58  43  57 S3        30.08R
BRUNSWICK      MOCLDY    59  45  58 E3        30.11R


CITY           SKY/WX    TMP DP  RH WIND       PRES   REMARKS
BAINBRIDGE*    CLOUDY    59  45  58 CALM      30.09R
MOULTRIE*      PTCLDY    55  46  71 CALM      30.08F
VIDALIA*       MOCLDY    54  46  76 CALM      30.10R
WAYCROSS*      CLOUDY    61  46  56 CALM      30.08R
DOUGLAS*       MOCLDY    59  37  44 CALM      30.09S
$$


USA.gov is the U.S. government's official web portal to all federal, state and local government web resources and services.